EW2345 Weather Reports


time (UTC)temp
C
wind
direction
speed
KPH
gust
KPH
rain 1hr
cm
rain 24hr
cm
rain mn
cm
humidity
%
barometer
mb
20260508111409 15 229 17.7 24.1 0.00 0.13 0.13 77 1009.6
20260508110910 15 217 14.5 20.9 0.00 0.13 0.13 80 1009.6
20260508110410 15 221 11.3 19.3 0.00 0.13 0.13 80 1009.6
20260508105409 14 245 4.8 11.3 0.00 0.13 0.13 81 1009.7
20260508104909 14 244 4.8 8.0 0.00 0.13 0.13 85 1009.8
20260508104409 13 244 3.2 8.0 0.00 0.13 0.13 86 1009.8
20260508103909 13 244 1.6 8.0 0.00 0.13 0.13 84 1009.8
20260508103409 13 243 4.8 8.0 0.00 0.13 0.13 86 1009.9
20260508102910 13 243 3.2 9.7 0.00 0.13 0.13 85 1010.0
20260508102409 13 242 4.8 9.7 0.00 0.13 0.13 89 1010.0
20260508101409 13 250 8.0 11.3 0.00 0.13 0.13 88 1010.0
20260508100409 13 241 6.4 11.3 0.00 0.13 0.13 87 1010.0
20260508095911 13 247 6.4 12.9 0.00 0.13 0.13 88 1010.0
20260508095410 13 241 8.0 11.3 0.00 0.13 0.13 87 1010.0
20260508094909 13 242 9.7 14.5 0.00 0.13 0.13 86 1009.9
20260508094410 13 221 8.0 12.9 0.00 0.13 0.13 90 1009.8
20260508093909 13 211 4.8 9.7 0.00 0.13 0.13 92 1009.7
20260508093409 13 210 4.8 9.7 0.00 0.13 0.13 94 1009.7
20260508092910 12 210 4.8 9.7 0.00 0.13 0.13 94 1009.7
20260508092409 12 205 6.4 9.7 0.00 0.13 0.13 95 1009.7
20260508091909 12 187 8.0 9.7 0.00 0.13 0.13 95 1009.8
20260508091409 12 86 1.6 4.8 0.00 0.13 0.13 93 1009.8
20260508090909 12 86 0.0 0.0 0.00 0.13 0.13 95 1009.7
20260508085409 11 86 0.0 1.6 0.00 0.13 0.13 95 1009.7
20260508084909 11 86 0.0 0.0 0.00 0.13 0.13 95 1009.7
20260508084409 11 86 0.0 0.0 0.00 0.13 0.13 97 1009.7
20260508083909 11 86 1.6 3.2 0.00 0.13 0.13 98 1009.6
20260508083409 11 86 1.6 4.8 0.00 0.13 0.13 98 1009.6
20260508082911 10 86 1.6 8.0 0.00 0.13 0.13 99 1009.7
20260508082409 10 87 1.6 4.8 0.00 0.13 0.13 99 1009.7
20260508081409 10 87 0.0 1.6 0.00 0.13 0.13 99 1009.6
20260508080909 10 87 0.0 0.0 0.00 0.13 0.13 99 1009.6
20260508080409 10 87 0.0 3.2 0.00 0.13 0.13 99 1009.5
20260508075910 10 87 1.6 3.2 0.03 0.13 0.13 99 1009.6
20260508075409 10 87 1.6 4.8 0.03 0.13 0.13 99 1009.6
20260508074910 9 87 1.6 4.8 0.05 0.13 0.13 99 1009.5
20260508074410 9 86 0.0 0.0 0.08 0.13 0.13 99 1009.5
20260508073909 9 86 0.0 3.2 0.10 0.13 0.13 99 1009.3
20260508073410 9 86 1.6 4.8 0.13 0.13 0.13 99 1009.3
20260508072911 9 11 0.0 8.0 0.13 0.13 0.13 99 1009.2
20260508072409 9 5 4.8 11.3 0.13 0.13 0.13 99 1009.2
20260508071909 9 334 4.8 16.1 0.13 0.13 0.13 99 1009.2
20260508071409 9 37 9.7 12.9 0.13 0.13 0.13 99 1008.9
20260508070910 9 47 3.2 8.0 0.13 0.13 0.13 98 1008.9
20260508070409 9 51 4.8 11.3 0.13 0.13 0.13 98 1009.0
20260508065910 9 52 3.2 8.0 0.10 0.10 0.10 98 1009.1
20260508065409 9 276 1.6 3.2 0.10 0.10 0.10 98 1009.3
20260508064909 9 276 1.6 3.2 0.08 0.08 0.08 98 1009.7
20260508063910 8 276 0.0 3.2 0.03 0.03 0.03 98 1009.7
20260508063409 8 276 1.6 4.8 0.00 0.00 0.00 98 1009.6
20260508062910 8 276 0.0 0.0 0.00 0.00 0.00 98 1009.5
20260508062409 8 276 0.0 0.0 0.00 0.00 0.00 98 1009.4
20260508061909 8 276 0.0 0.0 0.00 0.00 0.00 98 1009.4
20260508060909 8 276 0.0 1.6 0.00 0.00 0.00 98 1009.3
20260508060409 8 276 1.6 4.8 0.00 0.00 0.00 98 1009.2
20260508055910 8 276 0.0 4.8 0.00 0.00 0.00 98 1009.2
20260508055410 8 276 4.8 4.8 0.00 0.00 0.00 98 1009.0
20260508054910 8 276 0.0 0.0 0.00 0.00 0.00 98 1009.3
20260508054410 8 276 0.0 0.0 0.00 0.00 0.00 97 1009.1
20260508053409 8 276 0.0 3.2 0.00 0.00 0.00 98 1009.0
20260508052910 8 276 0.0 4.8 0.00 0.00 0.00 98 1009.0
20260508052410 8 276 0.0 3.2 0.00 0.00 0.00 97 1008.8
20260508051909 8 276 1.6 4.8 0.00 0.00 0.00 97 1008.8
20260508051409 8 276 4.8 8.0 0.00 0.00 0.00 97 1008.8
20260508050909 8 276 3.2 8.0 0.00 0.00 0.00 97 1008.8
20260508050410 8 276 8.0 9.7 0.00 0.00 0.00 97 1008.9
20260508045910 8 276 8.0 9.7 0.00 0.00 0.00 97 1008.8
20260508045409 8 276 8.0 9.7 0.00 0.00 0.00 97 1008.6
20260508044910 8 276 4.8 4.8 0.00 0.00 0.00 97 1008.4
20260508044410 8 276 1.6 8.0 0.00 0.00 0.00 97 1008.5
20260508043410 8 276 6.4 8.0 0.00 0.00 0.00 97 1008.5
20260508042910 8 276 8.0 8.0 0.00 0.00 0.00 97 1008.6
20260508042409 8 276 4.8 8.0 0.00 0.00 0.00 97 1008.6
20260508040909 8 277 9.7 9.7 0.00 0.00 0.00 97 1008.5
20260508040409 8 38 8.0 8.0 0.00 0.00 0.00 97 1008.6
20260508035911 8 38 6.4 8.0 0.00 0.00 0.00 97 1008.8
20260508035409 8 38 0.0 3.2 0.00 0.00 0.00 97 1008.8
20260508034909 8 38 0.0 0.0 0.00 0.00 0.00 97 1008.8
20260508034409 8 38 0.0 1.6 0.00 0.00 0.00 97 1008.8
20260508033910 8 38 1.6 3.2 0.00 0.00 0.00 97 1008.7
20260508032911 8 38 3.2 4.8 0.00 0.00 0.00 97 1008.9
20260508031909 8 38 0.0 3.2 0.00 0.00 0.00 96 1008.9
20260508031410 8 38 0.0 0.0 0.00 0.00 0.00 96 1009.0
20260508030909 8 38 0.0 0.0 0.00 0.00 0.00 97 1009.1
20260508030410 8 38 0.0 0.0 0.00 0.00 0.00 97 1009.1
20260508025910 8 38 0.0 3.2 0.00 0.00 0.00 97 1009.0
20260508025410 8 38 1.6 3.2 0.00 0.00 0.00 97 1009.0
20260508024909 8 38 1.6 3.2 0.00 0.00 0.00 96 1009.0
20260508024409 9 38 0.0 4.8 0.00 0.00 0.00 97 1009.2
20260508023909 9 38 1.6 3.2 0.00 0.00 0.00 97 1009.2
20260508023409 9 38 3.2 4.8 0.00 0.00 0.00 96 1009.2
20260508022409 8 38 1.6 4.8 0.00 0.00 0.00 96 1009.4
20260508021910 8 38 3.2 8.0 0.00 0.00 0.00 96 1009.3
20260508021409 8 38 1.6 4.8 0.00 0.00 0.00 96 1009.4
20260508020909 8 38 0.0 1.6 0.00 0.00 0.00 96 1009.5
20260508020409 8 38 1.6 3.2 0.00 0.00 0.00 96 1009.6
20260508015911 8 38 0.0 0.0 0.00 0.00 0.00 96 1009.6
20260508015410 8 38 0.0 0.0 0.00 0.00 0.00 96 1009.6
20260508014910 8 38 0.0 0.0 0.00 0.00 0.00 96 1009.6
20260508014409 8 38 0.0 0.0 0.00 0.00 0.00 96 1009.8
20260508013909 8 38 0.0 0.0 0.00 0.00 0.00 95 1009.6
20260508013410 8 38 0.0 0.0 0.00 0.00 0.00 95 1009.7
20260508012409 8 38 0.0 0.0 0.00 0.00 0.00 95 1009.9
20260508011910 8 38 0.0 1.6 0.00 0.00 0.00 95 1009.9
20260508011409 8 38 0.0 3.2 0.00 0.00 0.00 95 1009.9
20260508005910 8 38 0.0 0.0 0.00 0.00 0.00 94 1010.0
20260508005409 8 38 0.0 0.0 0.00 0.00 0.00 94 1010.1
20260508004910 8 38 0.0 0.0 0.00 0.00 0.00 94 1010.1
20260508004409 9 38 0.0 0.0 0.00 0.00 0.00 94 1010.2
20260508003910 9 38 0.0 0.0 0.00 0.00 0.00 94 1010.3
20260508003409 9 38 0.0 0.0 0.00 0.00 0.00 94 1010.4
20260508002910 9 38 0.0 0.0 0.00 0.00 0.00 93 1010.4
20260508002410 9 38 0.0 0.0 0.00 0.00 0.00 93 1010.5
20260508001410 9 38 0.0 0.0 0.00 0.00 0.00 93 1010.5
20260508000910 9 38 0.0 0.0 0.00 0.00 0.00 93 1010.6
20260508000409 9 38 0.0 1.6 0.00 0.00 0.00 94 1010.6
20260507235911 9 38 0.0 1.6 0.00 0.00 0.00 94 1010.6
20260507235409 9 38 0.0 3.2 0.00 0.00 0.00 93 1010.6
20260507234910 10 38 3.2 4.8 0.00 0.00 0.00 93 1010.7
20260507234409 10 38 1.6 8.0 0.00 0.00 0.00 93 1010.8
20260507233909 10 37 1.6 8.0 0.00 0.00 0.00 92 1010.8
20260507233409 10 284 0.0 3.2 0.00 0.00 0.00 92 1010.9
20260507232910 10 284 1.6 3.2 0.00 0.00 0.00 92 1010.8
20260507232409 10 284 1.6 3.2 0.00 0.00 0.00 92 1010.9
20260507231909 10 284 0.0 3.2 0.00 0.00 0.00 92 1010.9
20260507231409 10 284 1.6 3.2 0.00 0.00 0.00 92 1010.9
20260507230909 10 284 1.6 3.2 0.00 0.00 0.00 92 1010.9
20260507230410 10 284 1.6 4.8 0.00 0.00 0.00 92 1010.9
20260507225910 10 284 3.2 8.0 0.00 0.00 0.00 92 1011.0
20260507225409 10 284 0.0 4.8 0.00 0.00 0.00 92 1010.9
20260507224909 10 283 0.0 1.6 0.00 0.00 0.00 92 1011.0
20260507224410 10 283 0.0 0.0 0.00 0.00 0.00 92 1011.1
20260507223910 10 283 0.0 0.0 0.00 0.00 0.00 92 1011.2
20260507223409 10 283 0.0 0.0 0.00 0.00 0.00 91 1011.2
20260507222911 10 283 0.0 0.0 0.00 0.00 0.00 91 1011.3
20260507222409 10 283 0.0 0.0 0.00 0.00 0.00 91 1011.3
20260507221909 10 283 0.0 0.0 0.00 0.00 0.00 91 1011.3
20260507221409 11 283 0.0 0.0 0.00 0.00 0.00 91 1011.4
20260507220909 11 283 0.0 3.2 0.00 0.00 0.00 91 1011.4
20260507220409 11 283 1.6 4.8 0.00 0.00 0.00 91 1011.4
20260507215910 11 283 3.2 4.8 0.00 0.00 0.00 91 1011.5
20260507215409 11 283 3.2 8.0 0.00 0.00 0.00 90 1011.5
20260507213909 11 284 4.8 11.3 0.00 0.00 0.00 89 1011.5
20260507213409 11 239 0.0 3.2 0.00 0.00 0.00 89 1011.5
20260507212410 11 239 0.0 0.0 0.00 0.00 0.00 88 1011.6
20260507211909 11 239 0.0 4.8 0.00 0.00 0.00 87 1011.6
20260507211410 11 239 8.0 11.3 0.00 0.00 0.00 87 1011.5
20260507210909 11 239 8.0 12.9 0.00 0.00 0.00 87 1011.4
20260507210409 11 238 8.0 12.9 0.00 0.00 0.00 86 1011.4
20260507205910 11 246 9.7 14.5 0.00 0.00 0.00 86 1011.3
20260507204909 12 240 4.8 11.3 0.00 0.00 0.00 85 1011.3
20260507204409 12 242 9.7 14.5 0.00 0.00 0.00 85 1011.1
20260507203910 12 242 9.7 14.5 0.00 0.00 0.00 84 1011.1
20260507203409 12 235 8.0 12.9 0.00 0.00 0.00 83 1011.0
20260507202910 12 254 8.0 11.3 0.00 0.00 0.00 83 1011.0
20260507201910 12 256 4.8 11.3 0.00 0.00 0.00 81 1010.8
20260507201410 12 237 11.3 14.5 0.00 0.00 0.00 81 1010.7
20260507200910 12 238 11.3 16.1 0.00 0.00 0.00 79 1010.6
20260507200409 13 201 9.7 14.5 0.00 0.00 0.00 79 1010.5
20260507195910 13 219 8.0 11.3 0.00 0.00 0.00 78 1010.5
20260507195409 13 236 6.4 9.7 0.00 0.00 0.00 78 1010.4
20260507193909 13 248 8.0 12.9 0.00 0.00 0.00 76 1010.2
20260507193409 13 237 8.0 14.5 0.00 0.00 0.00 75 1010.1
20260507192910 14 230 9.7 16.1 0.00 0.00 0.00 74 1010.0
20260507192410 14 223 8.0 9.7 0.00 0.00 0.00 74 1009.9
20260507191910 14 223 9.7 14.5 0.00 0.00 0.00 74 1009.9
20260507191409 15 243 9.7 14.5 0.00 0.00 0.00 74 1009.9
20260507190909 15 245 9.7 14.5 0.00 0.00 0.00 73 1009.8
20260507190410 15 237 11.3 16.1 0.00 0.00 0.00 73 1009.8
20260507185410 15 245 9.7 16.1 0.00 0.00 0.00 72 1009.8
20260507184909 15 248 11.3 19.3 0.00 0.00 0.00 72 1009.8
20260507184410 15 231 14.5 20.9 0.00 0.00 0.00 73 1009.8
20260507183910 15 238 9.7 16.1 0.00 0.00 0.00 73 1009.6
20260507183409 15 244 11.3 20.9 0.00 0.00 0.00 73 1009.6
20260507182910 15 238 11.3 22.5 0.00 0.00 0.00 73 1009.6
20260507182410 15 240 11.3 22.5 0.00 0.00 0.00 72 1009.6
20260507181909 15 245 14.5 20.9 0.00 0.00 0.00 72 1009.5
20260507181409 15 256 11.3 19.3 0.00 0.00 0.00 72 1009.6
20260507180909 15 230 11.3 16.1 0.00 0.00 0.00 73 1009.5
20260507180410 16 240 14.5 19.3 0.00 0.00 0.00 72 1009.4
20260507175910 16 241 12.9 20.9 0.00 0.00 0.00 72 1009.4
20260507175410 16 241 14.5 22.5 0.00 0.00 0.00 71 1009.3
20260507174910 16 250 16.1 32.2 0.00 0.00 0.00 71 1009.3
20260507174410 16 247 14.5 29.0 0.00 0.00 0.00 71 1009.3
20260507173909 16 238 12.9 24.1 0.00 0.00 0.00 71 1009.2
20260507173410 16 249 14.5 32.2 0.00 0.00 0.00 71 1009.3
20260507172910 16 248 20.9 33.8 0.00 0.00 0.00 71 1009.3
20260507172410 16 246 17.7 29.0 0.00 0.00 0.00 71 1009.3
20260507171910 17 239 19.3 32.2 0.00 0.00 0.00 70 1009.3
20260507171409 17 238 16.1 35.4 0.00 0.00 0.00 70 1009.3
20260507170409 17 248 19.3 29.0 0.00 0.00 0.00 71 1009.2
20260507165910 17 240 16.1 33.8 0.00 0.00 0.00 69 1009.2
20260507165409 17 248 16.1 35.4 0.00 0.00 0.00 69 1009.2
20260507163910 17 253 14.5 25.7 0.00 0.00 0.00 70 1009.0
20260507163409 18 242 14.5 24.1 0.00 0.00 0.00 69 1009.1
20260507162911 18 241 16.1 24.1 0.00 0.00 0.00 68 1009.0
20260507162409 18 242 12.9 25.7 0.00 0.00 0.00 67 1009.0
20260507161409 18 229 14.5 24.1 0.00 0.00 0.00 67 1009.0
20260507160910 18 222 14.5 25.7 0.00 0.00 0.00 69 1009.0
20260507160409 17 241 12.9 24.1 0.00 0.00 0.00 73 1008.9
20260507155911 17 233 12.9 20.9 0.00 0.00 0.00 69 1009.0
20260507155410 17 229 12.9 20.9 0.00 0.00 0.00 70 1009.0
20260507154910 17 240 14.5 20.9 0.00 0.00 0.00 67 1009.0
20260507154409 18 226 11.3 24.1 0.00 0.00 0.00 69 1009.0
20260507153910 17 249 12.9 20.9 0.00 0.00 0.00 69 1009.0
20260507152910 18 228 16.1 22.5 0.00 0.00 0.00 70 1009.0
20260507152410 18 239 16.1 22.5 0.00 0.00 0.00 69 1009.1
20260507150410 17 238 14.5 22.5 0.00 0.00 0.00 73 1009.2
20260507145410 17 246 12.9 24.1 0.00 0.00 0.00 75 1009.3
20260507144410 17 226 14.5 29.0 0.00 0.00 0.00 74 1009.3
20260507143410 18 236 16.1 24.1 0.00 0.00 0.00 74 1009.4
20260507142911 17 238 17.7 35.4 0.00 0.00 0.00 75 1009.4
20260507141909 17 233 19.3 29.0 0.00 0.00 0.00 76 1009.4
20260507141409 17 234 14.5 22.5 0.00 0.00 0.00 76 1009.3
20260507140909 17 239 16.1 33.8 0.00 0.00 0.00 76 1009.4
20260507140410 17 236 16.1 24.1 0.00 0.00 0.00 76 1009.5
20260507135911 17 239 14.5 29.0 0.00 0.00 0.00 75 1009.3
20260507134909 17 247 16.1 35.4 0.00 0.00 0.00 74 1009.3
20260507134409 18 265 14.5 25.7 0.00 0.00 0.00 74 1009.3
20260507133910 17 238 14.5 22.5 0.00 0.00 0.00 78 1009.3
20260507133410 17 244 11.3 19.3 0.00 0.00 0.00 76 1009.3
20260507132911 17 239 14.5 24.1 0.00 0.00 0.00 75 1009.4
20260507132410 17 239 14.5 32.2 0.00 0.00 0.00 75 1009.4
20260507131909 17 238 16.1 32.2 0.00 0.00 0.00 76 1009.3
20260507130910 17 256 12.9 20.9 0.00 0.00 0.00 74 1009.4
20260507130409 17 247 12.9 24.1 0.00 0.00 0.00 73 1009.4
20260507124910 17 241 14.5 32.2 0.00 0.00 0.00 73 1009.5
20260507124409 18 236 14.5 32.2 0.00 0.00 0.00 72 1009.4
20260507123910 18 237 16.1 29.0 0.00 0.00 0.00 70 1009.4
20260507123410 18 233 19.3 32.2 0.00 0.00 0.00 70 1009.5
20260507122911 18 243 16.1 32.2 0.00 0.00 0.00 72 1009.6
20260507122410 18 240 19.3 33.8 0.00 0.00 0.00 71 1009.6
20260507121910 19 235 14.5 25.7 0.00 0.00 0.00 70 1009.7
20260507121410 18 225 14.5 24.1 0.00 0.00 0.00 76 1009.7
20260507120909 17 237 14.5 24.1 0.00 0.00 0.00 74 1009.8
20260507120409 17 247 14.5 25.7 0.00 0.00 0.00 73 1009.7
20260507115910 18 248 12.9 24.1 0.00 0.00 0.00 71 1009.8
20260507114909 18 250 12.9 19.3 0.00 0.00 0.00 74 1009.8
20260507114409 17 246 14.5 25.7 0.00 0.00 0.00 72 1009.8
20260507113910 17 235 9.7 22.5 0.00 0.00 0.00 73 1009.9
20260507113409 18 252 14.5 24.1 0.00 0.00 0.00 70 1009.9
20260507112911 18 241 16.1 25.7 0.00 0.00 0.00 68 1009.8
20260507111910 17 246 11.3 19.3 0.00 0.00 0.00 70 1009.8